GW5701 Weather Reports


time (UTC)temp
C
wind
direction
speed
KPH
gust
KPH
rain 1hr
cm
rain 24hr
cm
rain mn
cm
humidity
%
barometer
mb
20260504081048 8 237 3.2 6.4 0.00 0.00 0.00 56 1015.3
20260504045047 10 246 0.0 3.2 0.00 0.00 0.00 49 1015.8
20260504044048 10 172 0.0 3.2 0.00 0.00 0.00 48 1015.7
20260504043047 10 249 0.0 3.2 0.00 0.00 0.00 43 1015.6
20260504042047 10 180 0.0 3.2 0.00 0.00 0.00 46 1015.6
20260504041048 10 180 0.0 1.6 0.00 0.00 0.00 46 1015.6
20260504040047 10 180 0.0 1.6 0.00 0.00 0.00 45 1015.6
20260504035049 10 282 1.6 3.2 0.00 0.00 0.00 47 1015.6
20260504034047 10 180 0.0 3.2 0.00 0.00 0.00 45 1015.6
20260504033048 10 135 1.6 3.2 0.00 0.00 0.00 47 1015.6
20260504032047 10 140 1.6 3.2 0.00 0.00 0.00 44 1015.6
20260504031047 10 180 0.0 3.2 0.00 0.00 0.00 44 1015.6
20260504030047 10 293 0.0 3.2 0.00 0.00 0.00 41 1015.6
20260504025047 10 311 1.6 4.8 0.00 0.00 0.00 41 1015.6
20260504024049 10 290 1.6 3.2 0.00 0.00 0.00 42 1015.5
20260504023048 10 302 1.6 3.2 0.00 0.00 0.00 45 1015.4
20260504022048 10 317 0.0 1.6 0.00 0.00 0.00 43 1015.5
20260504021047 10 306 1.6 3.2 0.00 0.00 0.00 43 1015.4
20260504020047 10 241 0.0 3.2 0.00 0.00 0.00 41 1015.2
20260504015047 10 54 0.0 3.2 0.00 0.00 0.00 40 1015.1
20260504014047 11 34 1.6 3.2 0.00 0.00 0.00 37 1015.0
20260504013047 10 306 1.6 6.4 0.00 0.00 0.00 40 1014.9
20260504012047 10 348 1.6 3.2 0.00 0.00 0.00 39 1014.7
20260504011047 10 313 1.6 3.2 0.00 0.00 0.00 41 1014.7
20260504010048 11 330 0.0 1.6 0.00 0.00 0.00 39 1014.5
20260504005048 11 332 0.0 4.8 0.00 0.00 0.00 35 1014.5
20260504004047 12 44 3.2 4.8 0.00 0.00 0.00 33 1014.5
20260504003050 12 322 0.0 3.2 0.00 0.00 0.00 35 1014.4
20260504002048 12 50 0.0 3.2 0.00 0.00 0.00 34 1014.4
20260504001048 13 357 0.0 6.4 0.00 0.00 0.00 32 1014.3
20260504000047 13 39 3.2 8.0 0.00 0.00 0.00 30 1014.3
20260503235048 15 343 0.0 3.2 0.00 0.00 0.00 27 1014.2
20260503234047 15 338 0.0 4.8 0.00 0.00 0.00 28 1014.2
20260503233047 15 310 1.6 4.8 0.00 0.00 0.00 25 1014.2
20260503232047 16 298 1.6 4.8 0.00 0.00 0.00 25 1014.2
20260503231047 17 9 1.6 3.2 0.00 0.00 0.00 23 1014.1
20260503230048 17 356 3.2 6.4 0.00 0.00 0.00 23 1014.1
20260503225047 18 314 1.6 6.4 0.00 0.00 0.00 21 1014.1
20260503224047 17 308 3.2 11.3 0.00 0.00 0.00 23 1014.1
20260503223049 18 293 3.2 12.9 0.00 0.00 0.00 23 1014.0
20260503222047 19 201 4.8 11.3 0.00 0.00 0.00 20 1014.0
20260503221047 18 197 3.2 11.3 0.00 0.00 0.00 23 1014.0
20260503220047 18 197 3.2 9.7 0.00 0.00 0.00 20 1014.1
20260503215048 19 306 3.2 6.4 0.00 0.00 0.00 22 1014.1
20260503214048 17 345 4.8 11.3 0.00 0.00 0.00 22 1014.2
20260503213047 17 314 6.4 14.5 0.00 0.00 0.00 23 1014.1
20260503212047 18 196 6.4 16.1 0.00 0.00 0.00 21 1014.2
20260503211047 18 235 4.8 16.1 0.00 0.00 0.00 22 1014.2
20260503210047 17 316 6.4 16.1 0.00 0.00 0.00 23 1014.3
20260503205048 17 284 3.2 12.9 0.00 0.00 0.00 24 1014.4
20260503204047 16 300 6.4 12.9 0.00 0.00 0.00 22 1014.5
20260503203047 18 18 1.6 14.5 0.00 0.00 0.00 22 1014.5
20260503202047 17 268 6.4 11.3 0.00 0.00 0.00 22 1014.7
20260503201050 17 194 8.0 14.5 0.00 0.00 0.00 23 1014.8
20260503200047 17 278 6.4 9.7 0.00 0.00 0.00 26 1014.9
20260503195047 16 52 6.4 16.1 0.00 0.00 0.00 25 1015.1
20260503194048 16 286 6.4 14.5 0.00 0.00 0.00 24 1015.3
20260503193047 16 303 8.0 11.3 0.00 0.00 0.00 24 1015.3
20260503192047 16 288 3.2 14.5 0.00 0.00 0.00 26 1015.2
20260503191048 16 227 4.8 22.5 0.00 0.00 0.00 25 1015.6
20260503190048 15 290 6.4 17.7 0.00 0.00 0.00 25 1015.7
20260503185047 15 299 6.4 14.5 0.00 0.00 0.00 30 1015.9
20260503184046 15 287 6.4 14.5 0.00 0.00 0.00 30 1016.1
20260503183048 15 195 4.8 16.1 0.00 0.00 0.00 28 1016.1
20260503182047 14 299 8.0 17.7 0.00 0.00 0.00 29 1016.3
20260503181049 -17 0.0 0.0 0.00 0.00 0.00 1016.3
20260503180048 -17 0.0 0.0 0.00 0.00 0.00 1016.4
20260503175049 -17 0.0 0.0 0.00 0.00 0.00 1016.3
20260503174049 -17 0.0 0.0 0.00 0.00 0.00 1016.4
20260503173048 -17 0.0 0.0 0.00 0.00 0.00 1016.5
20260503172047 -17 0.0 0.0 0.00 0.00 0.00 1016.7
20260503171047 -17 0.0 0.0 0.00 0.00 0.00 1016.8